Hauptseite
METAR-TAF:

METAR-TAF

Flughäfen :

Le Luc, Frankreich

Flughafen Le Luc-Le Cannet

Breite: 43-23N, Länge: 006-23E, Höhe: 80 m

Beobachtung

Neuester Wetterbericht von vor 18 Minuten, um 01:00 UTC
Wind 10 kt aus West
Temperatur 9°C
Luftfeuchtigkeit 49%
Luftdruck 1015 hPa
Sichtweite 10 km oder mehr

METAR: LFMC 200100Z AUTO 28010KT 9999 ////// 09/M01 Q1015

Zeit: 02:18 (01:18 UTC)


TAF: fehlend

Wetterbeobachtungen und Prognosen von mehr als 4000 Flughäfen (METAR und TAF Bericht).

Die verfügbaren Stationen werden durch gelbe und rote Markierungen auf der Karte dargestellt.

Führen Sie die Maus auf sie, um den Namen der Station zu sehen.

Darauf klicken, um die Beobachtung von Wetterbeobachtungen und Prognosen zu sehen.

Um die Karte zu ändern : klicken Sie auf den grünen Tasten mit einem schwarzen Kreuz Zum Vergrößern, auf den grünen Button mit einem Gedankenstrich zu verkleinern, oder auf die grünen Pfeile für benachbarte Karten.


METAR-TAF: